Location: Observatoire de l'Aigle
(47.0607°N, 71.3152°W)
Time: 05:26:47
(UTC-04:00)

Amateur Radio Satellites - All Passes

Search period start: 16 September 2014 04:56
Search period end: 17 September 2014 04:56
Location: Observatoire de l'Aigle, 47.0607°N, 71.3152°W

Satellite Date Start Highest point End Downlink Frequencies (MHz)
Time Altitude Azimuth
AO-Echo 16 Sep 04:58:11 04:59:45 12° 305° (NW) 05:01:20 ?
UOSAT-12 16 Sep 05:04:42 05:05:11 10° 349° (N) 05:05:40 437.025 FM, 437.400 FM
KITSAT 1 16 Sep 05:18:04 05:26:11 82° 238° (WSW) 05:34:15 435.175 FM
AO-27 16 Sep 05:22:14 05:23:02 10° 309° (NW) 05:23:50 436.795 MHz FM
RS-15 16 Sep 05:38:54 05:49:55 83° 124° (ESE) 06:00:53 29.354 - 29.394 USB, Beacon 29.352 USB
Gurwin Techsat 1B 16 Sep 05:51:28 05:53:17 12° 308° (NW) 05:55:07 435.225 FM
JAS-2 16 Sep 05:51:43 05:56:46 30° 95° (E) 06:02:20 435.800 - 435.900 CW/SSB, 435.910 FM
OPAL 16 Sep 06:00:24 06:03:16 15° 270° (W) 06:06:09 ?
Uosat F 16 Sep 06:02:10 06:06:56 44° 292° (WNW) 06:11:41 435.120 FM
SO-50 16 Sep 06:25:42 06:29:37 25° 36° (NE) 06:33:34 436.795 FM
ISS 16 Sep 06:31:31 06:34:44 42° 348° (NNW) 06:37:56 145.800 FM
STRAND 1 16 Sep 06:31:56 06:37:01 81° 73° (ENE) 06:42:08 ?
Hamsat 16 Sep 06:32:58 06:37:13 57° 100° (E) 06:41:23 145.90 MHz
AO-7 16 Sep 06:34:56 06:42:46 49° 300° (WNW) 06:50:35 29.400 - 29.500 MHz
UOSAT-12 16 Sep 06:46:18 06:47:34 11° 14° (NNE) 06:48:50 437.025 FM, 437.400 FM
KITSAT 1 16 Sep 07:15:07 07:20:22 19° 259° (WSW) 07:25:38 435.175 FM
JAS-2 16 Sep 07:36:34 07:42:02 49° 291° (WNW) 07:48:09 435.800 - 435.900 CW/SSB, 435.910 FM
SO-67 16 Sep 07:36:53 07:40:11 40° 98° (E) 07:43:27 435.3500 MHz FM
RS-15 16 Sep 07:53:17 08:03:29 42° 332° (NNW) 08:13:46 29.354 - 29.394 USB, Beacon 29.352 USB
SO-50 16 Sep 08:05:51 08:10:39 72° 236° (SW) 08:15:29 436.795 FM
ISS 16 Sep 08:08:44 08:11:54 38° 8° (N) 08:15:03 145.800 FM
Hamsat 16 Sep 08:10:00 08:12:45 17° 298° (WNW) 08:15:28 145.90 MHz
STRAND 1 16 Sep 08:14:10 08:16:51 14° 272° (W) 08:19:34 ?
MaSat-1 16 Sep 08:20:54 08:24:17 18° 103° (ESE) 08:27:39 437.345 MHz
UOSAT-12 16 Sep 08:25:13 08:29:19 28° 38° (NE) 08:33:22 437.025 FM, 437.400 FM
AO-7 16 Sep 08:29:37 08:33:37 15° 323° (NW) 08:37:37 29.400 - 29.500 MHz
SO-67 16 Sep 09:10:52 09:12:54 15° 296° (WNW) 09:14:56 435.3500 MHz FM
Oscar 11 16 Sep 09:29:27 09:32:09 16° 90° (E) 09:34:50 145.825 FM, Beacon 2401.500 USB
HO-68 16 Sep 09:39:19 09:46:22 56° 101° (ESE) 09:53:23 435.675 MHz FM
UKube-1 16 Sep 09:41:33 09:45:16 27° 95° (E) 09:48:59 145.840 MHz, 145.915 MHz
ISS 16 Sep 09:45:29 09:48:50 78° 208° (SSW) 09:52:09 145.800 FM
SO-50 16 Sep 09:49:32 09:50:23 10° 253° (WSW) 09:51:14 436.795 FM
MaSat-1 16 Sep 09:55:34 10:00:37 72° 301° (WNW) 10:05:35 437.345 MHz
UOSAT-12 16 Sep 10:05:08 10:09:47 57° 238° (WSW) 10:14:22 437.025 FM, 437.400 FM
RS-15 16 Sep 10:10:07 10:19:33 31° 6° (N) 10:29:08 29.354 - 29.394 USB, Beacon 29.352 USB
FUNcube-1 16 Sep 10:43:53 10:48:15 40° 97° (E) 10:52:35 145.950 - 145.970 MHz USB
Oscar 11 16 Sep 11:04:25 11:08:43 57° 288° (WNW) 11:12:58 145.825 FM, Beacon 2401.500 USB
UKube-1 16 Sep 11:17:35 11:21:31 33° 293° (WNW) 11:25:25 145.840 MHz, 145.915 MHz
ISS 16 Sep 11:23:14 11:25:06 14° 225° (SW) 11:26:57 145.800 FM
JAS-1B 16 Sep 11:26:53 11:29:48 13° 47° (NE) 11:32:34 435.800 - 435.900 CW/SSB
HO-68 16 Sep 11:27:28 11:33:48 36° 301° (WNW) 11:40:09 435.675 MHz FM
MaSat-1 16 Sep 11:35:12 11:38:15 16° 320° (NW) 11:41:15 437.345 MHz
Oscar 19 16 Sep 11:37:03 11:39:14 13° 54° (NE) 11:41:25 437.125 CW, 437.150 USB
PCSat 16 Sep 11:58:32 12:01:46 16° 105° (ESE) 12:05:01 145.825 MHz
Oscar 16 16 Sep 12:12:46 12:16:55 25° 62° (ENE) 12:21:05 437.025 USB, Beacon 2401.1428
FUNcube-1 16 Sep 12:20:37 12:24:28 26° 295° (WNW) 12:28:17 145.950 - 145.970 MHz USB
RS-15 16 Sep 12:24:20 12:35:04 53° 38° (NE) 12:46:07 29.354 - 29.394 USB, Beacon 29.352 USB
ITAMSAT 1 16 Sep 12:48:44 12:52:43 23° 60° (ENE) 12:56:43 435.822 SSB
Uribyol 2 16 Sep 12:53:34 12:57:48 26° 62° (ENE) 13:02:04 436.500 FM
AO-Echo 16 Sep 12:55:32 12:59:25 26° 64° (ENE) 13:03:17 ?
TMSAT-1 16 Sep 12:57:46 12:59:12 11° 52° (NE) 13:00:38 436.925 FM
JAS-1B 16 Sep 13:10:51 13:19:04 51° 67° (ENE) 13:26:00 435.800 - 435.900 CW/SSB
Sapphire 16 Sep 13:11:45 13:17:02 58° 117° (ESE) 13:22:22 437.095 MHz 1200 baud AX-25 AFSK
Oscar 19 16 Sep 13:12:30 13:17:41 73° 73° (ENE) 13:22:54 437.125 CW, 437.150 USB
AO-27 16 Sep 13:21:40 13:26:30 42° 67° (ENE) 13:31:22 436.795 MHz FM
PCSat 16 Sep 13:39:03 13:44:28 84° 303° (WNW) 13:49:56 145.825 MHz
Oscar 16 16 Sep 13:50:54 13:55:57 52° 260° (W) 14:01:03 437.025 USB, Beacon 2401.1428
Gurwin Techsat 1B 16 Sep 13:53:52 13:58:46 40° 67° (ENE) 14:03:41 435.225 FM
AO-7 16 Sep 13:54:48 14:00:44 23° 46° (NE) 14:06:40 29.400 - 29.500 MHz
ITAMSAT 1 16 Sep 14:26:46 14:31:50 57° 259° (W) 14:36:57 435.822 SSB
Uribyol 2 16 Sep 14:32:03 14:37:02 48° 261° (W) 14:42:04 436.500 FM
TMSAT-1 16 Sep 14:32:53 14:38:06 63° 71° (ENE) 14:43:20 436.925 FM
AO-Echo 16 Sep 14:33:31 14:38:02 41° 262° (W) 14:42:30 ?
RS-15 16 Sep 14:36:59 14:47:46 61° 243° (WSW) 14:59:00 29.354 - 29.394 USB, Beacon 29.352 USB
Oscar 19 16 Sep 14:54:20 14:57:35 17° 271° (W) 15:00:51 437.125 CW, 437.150 USB
Sapphire 16 Sep 14:56:04 15:00:48 30° 318° (NW) 15:05:34 437.095 MHz 1200 baud AX-25 AFSK
JAS-1B 16 Sep 15:01:36 15:09:43 41° 263° (W) 15:16:41 435.800 - 435.900 CW/SSB
AO-27 16 Sep 15:01:43 15:06:09 29° 265° (W) 15:10:38 436.795 MHz FM
PCSat 16 Sep 15:24:40 15:28:42 21° 325° (NW) 15:32:46 145.825 MHz
Gurwin Techsat 1B 16 Sep 15:34:06 15:38:48 32° 265° (W) 15:43:33 435.225 FM
Uosat F 16 Sep 15:39:50 15:44:38 49° 69° (ENE) 15:49:27 435.120 FM
AO-7 16 Sep 15:44:01 15:52:19 77° 67° (ENE) 16:00:37 29.400 - 29.500 MHz
JAS-2 16 Sep 16:10:03 16:13:12 16° 57° (ENE) 16:16:19 435.800 - 435.900 CW/SSB, 435.910 FM
TMSAT-1 16 Sep 16:14:40 16:18:28 20° 270° (W) 16:22:18 436.925 FM
Oscar 10/S400 16 Sep 16:19:50 16:35:13 29° 146° (SE) 16:59:00 145.825 - 145.975 CW/USB, Beacon 145.810 USB
OPAL 16 Sep 16:26:48 16:30:04 17° 91° (E) 16:33:18 ?
MaSat-1 16 Sep 16:35:04 16:35:59 11° 33° (NNE) 16:36:52 437.345 MHz
Sapphire 16 Sep 16:44:43 16:46:07 11° 343° (NNW) 16:47:31 437.095 MHz 1200 baud AX-25 AFSK
RS-15 16 Sep 16:52:48 16:57:41 14° 266° (W) 17:02:38 29.354 - 29.394 USB, Beacon 29.352 USB
Uosat F 16 Sep 17:19:45 17:23:41 23° 267° (W) 17:27:39 435.120 FM
Hamsat 16 Sep 17:28:52 17:33:10 60° 73° (ENE) 17:37:29 145.90 MHz
Saudisat 1A 16 Sep 17:34:30 17:38:01 24° 115° (ESE) 17:41:33 436.775 MHz
AO-7 16 Sep 17:39:12 17:45:54 27° 268° (W) 17:52:38 29.400 - 29.500 MHz
JAS-2 16 Sep 17:52:24 17:57:44 78° 256° (WSW) 18:02:56 435.800 - 435.900 CW/SSB, 435.910 FM
OPAL 16 Sep 18:04:18 18:09:31 74° 290° (WNW) 18:14:37 ?
MaSat-1 16 Sep 18:09:48 18:13:55 56° 56° (ENE) 18:17:25 437.345 MHz
SO-67 16 Sep 18:13:05 18:15:51 23° 68° (ENE) 18:18:38 435.3500 MHz FM
HO-68 16 Sep 18:27:59 18:31:28 14° 44° (NE) 18:34:57 435.675 MHz FM
STRAND 1 16 Sep 18:40:11 18:44:06 22° 92° (E) 18:48:01 ?
PCSat 16 Sep 18:59:02 19:00:36 11° 18° (NNE) 19:02:10 145.825 MHz
Hamsat 16 Sep 19:06:56 19:09:31 15° 271° (W) 19:12:06 145.90 MHz
Saudisat 1A 16 Sep 19:13:03 19:17:20 49° 313° (NW) 19:21:39 436.775 MHz
OPAL 16 Sep 19:45:05 19:47:30 13° 309° (NW) 19:49:55 ?
SO-67 16 Sep 19:45:55 19:48:48 25° 265° (W) 19:51:43 435.3500 MHz FM
MaSat-1 16 Sep 19:48:09 19:50:01 13° 260° (W) 19:51:46 437.345 MHz
KITSAT 1 16 Sep 19:49:23 19:57:00 48° 113° (ESE) 20:04:38 435.175 FM
HO-68 16 Sep 20:10:48 20:17:43 57° 65° (ENE) 20:24:41 435.675 MHz FM
Sapphire 16 Sep 20:13:52 20:18:00 21° 36° (NE) 20:22:07 437.095 MHz 1200 baud AX-25 AFSK
STRAND 1 16 Sep 20:18:37 20:23:38 55° 290° (WNW) 20:28:38 ?
Oscar 11 16 Sep 20:27:28 20:30:37 20° 63° (ENE) 20:33:46 145.825 FM, Beacon 2401.500 USB
UKube-1 16 Sep 20:39:52 20:43:49 35° 67° (ENE) 20:47:47 145.840 MHz, 145.915 MHz
PCSat 16 Sep 20:41:03 20:45:52 31° 43° (NE) 20:50:39 145.825 MHz
Saudisat 1A 16 Sep 20:55:43 20:57:57 14° 335° (NNW) 21:00:11 436.775 MHz
FUNcube-1 16 Sep 21:43:08 21:47:19 45° 70° (ENE) 21:51:37 145.950 - 145.970 MHz USB
KITSAT 1 16 Sep 21:44:33 21:52:24 52° 315° (NW) 22:00:17 435.175 FM
Sapphire 16 Sep 21:56:44 22:02:12 88° 57° (ENE) 22:07:38 437.095 MHz 1200 baud AX-25 AFSK
HO-68 16 Sep 21:59:29 22:05:45 33° 265° (W) 22:12:05 435.675 MHz FM
Oscar 11 16 Sep 22:02:14 22:06:28 50° 261° (W) 22:10:44 145.825 FM, Beacon 2401.500 USB
UKube-1 16 Sep 22:16:29 22:20:05 25° 265° (W) 22:23:43 145.840 MHz, 145.915 MHz
PCSat 16 Sep 22:24:16 22:29:35 55° 243° (WSW) 22:34:51 145.825 MHz
SO-50 16 Sep 22:25:12 22:28:11 18° 111° (ESE) 22:31:14 436.795 FM
FUNcube-1 16 Sep 23:20:38 23:23:57 21° 269° (W) 23:27:21 145.950 - 145.970 MHz USB
Sapphire 16 Sep 23:41:47 23:44:52 16° 256° (WSW) 23:47:57 437.095 MHz 1200 baud AX-25 AFSK
KITSAT 1 16 Sep 23:43:45 23:49:54 23° 342° (NNW) 23:56:04 435.175 FM
SO-50 17 Sep 00:03:45 00:08:14 67° 310° (NW) 00:12:52 436.795 FM
Saudisat 1A 17 Sep 00:18:56 00:21:10 14° 25° (NNE) 00:23:25 436.775 MHz
UOSAT-12 17 Sep 00:19:58 00:23:28 22° 113° (ESE) 00:27:01 437.025 FM, 437.400 FM
Oscar 19 17 Sep 01:21:56 01:25:46 21° 91° (E) 01:29:34 437.125 CW, 437.150 USB
AO-27 17 Sep 01:33:51 01:35:28 11° 86° (E) 01:37:05 436.795 MHz FM
KITSAT 1 17 Sep 01:42:43 01:48:38 21° 13° (NNE) 01:54:31 435.175 FM
SO-50 17 Sep 01:46:42 01:49:42 17° 332° (NNW) 01:52:45 436.795 FM
Saudisat 1A 17 Sep 01:57:28 02:01:48 49° 47° (NE) 02:06:05 436.775 MHz
UOSAT-12 17 Sep 01:58:38 02:03:14 59° 312° (NW) 02:07:55 437.025 FM, 437.400 FM
Oscar 16 17 Sep 01:59:28 02:04:26 44° 98° (E) 02:09:21 437.025 USB, Beacon 2401.1428
Gurwin Techsat 1B 17 Sep 02:08:57 02:10:53 12° 86° (E) 02:12:48 435.225 FM
ITAMSAT 1 17 Sep 02:36:31 02:41:27 41° 98° (E) 02:46:21 435.822 SSB
AO-Echo 17 Sep 02:36:57 02:41:35 47° 99° (E) 02:46:19 ?
Uribyol 2 17 Sep 02:41:27 02:46:31 48° 99° (E) 02:51:33 436.500 FM
JAS-1B 17 Sep 02:43:31 02:49:15 50° 99° (E) 02:54:44 435.800 - 435.900 CW/SSB
TMSAT-1 17 Sep 02:46:30 02:50:19 20° 90° (E) 02:54:06 436.925 FM
RS-15 17 Sep 02:57:59 03:03:55 16° 96° (E) 03:09:47 29.354 - 29.394 USB, Beacon 29.352 USB
Oscar 19 17 Sep 03:00:24 03:05:30 59° 289° (WNW) 03:10:33 437.125 CW, 437.150 USB
AO-27 17 Sep 03:10:34 03:15:49 81° 104° (ESE) 03:21:02 436.795 MHz FM
Saudisat 1A 17 Sep 03:37:35 03:41:07 24° 245° (WSW) 03:44:38 436.775 MHz
KITSAT 1 17 Sep 03:38:46 03:46:26 43° 40° (NE) 03:54:03 435.175 FM
Oscar 16 17 Sep 03:39:12 03:43:36 29° 297° (WNW) 03:47:58 437.025 USB, Beacon 2401.1428
UOSAT-12 17 Sep 03:41:25 03:44:22 16° 334° (NNW) 03:47:21 437.025 FM, 437.400 FM
AO-7 17 Sep 03:43:26 03:49:11 20° 89° (E) 03:54:54 29.400 - 29.500 MHz
OPAL 17 Sep 03:43:48 03:48:40 42° 65° (ENE) 03:53:34 ?
Gurwin Techsat 1B 17 Sep 03:46:19 03:51:41 82° 104° (ESE) 03:57:00 435.225 FM
Uosat F 17 Sep 03:46:40 03:48:23 12° 87° (E) 03:50:05 435.120 FM
ISS 17 Sep 04:06:10 04:09:16 37° 144° (SE) 04:12:22 145.800 FM
ITAMSAT 1 17 Sep 04:16:17 04:20:49 31° 296° (WNW) 04:25:20 435.822 SSB
AO-Echo 17 Sep 04:16:20 04:20:08 24° 297° (WNW) 04:23:59 ?
Uribyol 2 17 Sep 04:21:25 04:25:45 27° 298° (WNW) 04:30:04 436.500 FM
TMSAT-1 17 Sep 04:25:26 04:30:41 63° 289° (WNW) 04:35:55 436.925 FM
JAS-1B 17 Sep 04:34:47 04:39:40 27° 301° (WNW) 04:44:20 435.800 - 435.900 CW/SSB
Oscar 19 17 Sep 04:43:18 04:43:47 10° 309° (NW) 04:44:16 437.125 CW, 437.150 USB
